Terug naar catalogus

STARLINK-34307

ActiefCommunicatieVLEO
NORAD 64489·PAYLOAD·🇺🇸 United States

Gelanceerd Jun 23, 2025 vanaf Cape Canaveral Space Force Station

Loading…

Volgende Passages (komende 24 uur)

TLE

VersSource: CelesTrak SupGP

Epoch: Sep 14, 2026, 20:52 UTC

1 64489C 25133T   26257.86993056 -.00015373  00000+0 -45440-3 0  2570
2 64489  53.1590 317.7057 0000964  83.6364  71.2207 15.34384652    16

Volg STARLINK-34307 in realtime met AllMySat

Download on the App Store